Location: Newark
(43.6486°N, 79.3853°W)
Time: 15:30:14
(UTC+00:00)

ISS - Visible Passes

Search period start: 01 April 2020 00:00
Search period end: 11 April 2020 00:00
Orbit: 416 x 423 km, 51.6° (Epoch: 02 April)

Date Brightness Start Highest point End Pass type
(mag) Time Alt. Az. Time Alt. Az. Time Alt. Az.
01 Apr -2.1 00:23:14 10° NW 00:26:06 25° NNE 00:28:58 10° ENE visible
01 Apr -2.4 01:59:53 10° WNW 02:02:07 39° WNW 02:02:07 39° WNW visible
02 Apr -3.5 01:12:30 10° NW 01:15:50 58° NNE 01:16:40 42° E visible
03 Apr -2.9 00:25:08 10° NW 00:28:20 40° NNE 00:31:14 12° E visible
03 Apr -2.0 02:02:03 10° WNW 02:04:13 28° WSW 02:04:13 28° WSW visible
04 Apr -3.3 01:14:28 10° WNW 01:17:45 55° SW 01:18:50 35° SSE visible
05 Apr -3.8 00:26:59 10° WNW 00:30:21 89° SW 00:33:31 11° ESE visible
05 Apr -1.0 02:05:15 10° WSW 02:06:29 12° SW 02:06:29 12° SW visible
06 Apr -1.6 01:16:53 10° W 01:19:26 20° SW 01:21:14 14° S visible
07 Apr -2.3 00:29:04 10° WNW 00:32:07 32° SW 00:35:09 10° SSE visible
09 Apr -0.9 00:32:12 10° WSW 00:33:37 12° SW 00:35:02 10° SSW visible
